• In Österreich
  • Länderverzeichnis
  • Für 7 Tage
  • Wassertemperatur
  • Satellitenkarten
  • Wetterkarte
  • News
  • Widgets
  • user-avatar
    Anmelden

    Stündliche Wetter Tomarza

    Heute, 16 Oktober, Dienstag

    Zeit Temperatur Niederschläge Wind Luftdruck Luftfeuchtigkeit
    00:00 +15°C° 0.2 mm 1 m/S 642 mmHg 56%
    01:00 +14°C° 0.2 mm 1 m/S 642 mmHg 57%
    02:00 +14°C° 0.2 mm 1 m/S 642 mmHg 59%
    03:00 +14°C° 0.2 mm 1 m/S 642 mmHg 60%
    04:00 +14°C° 0.2 mm 1 m/S 642 mmHg 62%
    05:00 +14°C° 0.2 mm 1 m/S 642 mmHg 63%
    06:00 +15°C° 0.3 mm 1 m/S 642 mmHg 59%
    07:00 +16°C° 0.3 mm 1 m/S 643 mmHg 56%
    08:00 +18°C° 0.3 mm 1 m/S 643 mmHg 52%
    09:00 +19°C° 0.3 mm 2 m/S 643 mmHg 48%
    10:00 +20°C° 0.3 mm 2 m/S 644 mmHg 43%
    11:00 +21°C° 0.3 mm 2 m/S 644 mmHg 38%
    12:00 +23°C° 0.6 mm 2 m/S 644 mmHg 36%
    13:00 +22°C° 0.6 mm 3 m/S 643 mmHg 34%
    14:00 +24°C° 0.6 mm 3 m/S 643 mmHg 32%
    15:00 +21°C° 0.9 mm 2 m/S 643 mmHg 37%
    16:00 +20°C° 0.9 mm 2 m/S 642 mmHg 41%
    17:00 +20°C° 0.9 mm 1 m/S 641 mmHg 45%
    18:00 +19°C° 0.5 mm 1 m/S 641 mmHg 48%
    19:00 +18°C° 0.5 mm 1 m/S 642 mmHg 50%
    20:00 +18°C° 0.5 mm 1 m/S 642 mmHg 53%
    21:00 +16°C° 0.3 mm 1 m/S 641 mmHg 54%
    22:00 +16°C° 0.3 mm 1 m/S 641 mmHg 55%
    23:00 +15°C° 0.3 mm 1 m/S 641 mmHg 57%

    Morgen, 17 Oktober, Mittwoch

    Zeit Temperatur Niederschläge Wind Luftdruck Luftfeuchtigkeit
    00:00 +15°C° 0.5 mm 1 m/S 641 mmHg 58%
    01:00 +15°C° 0.5 mm 1 m/S 641 mmHg 58%
    02:00 +14°C° 0.5 mm 1 m/S 641 mmHg 59%
    03:00 +14°C° 0.4 mm 1 m/S 640 mmHg 60%
    04:00 +14°C° 0.4 mm 1 m/S 640 mmHg 61%
    05:00 +14°C° 0.4 mm 1 m/S 640 mmHg 62%
    06:00 +15°C° 0.2 mm 1 m/S 641 mmHg 57%
    07:00 +16°C° 0.2 mm 1 m/S 641 mmHg 51%
    08:00 +19°C° 0.2 mm 1 m/S 642 mmHg 46%
    09:00 +20°C° 0.3 mm 1 m/S 642 mmHg 43%
    10:00 +20°C° 0.3 mm 2 m/S 642 mmHg 39%
    11:00 +21°C° 0.3 mm 2 m/S 643 mmHg 35%
    12:00 +23°C° 0.4 mm 2 m/S 642 mmHg 34%
    13:00 +23°C° 0.4 mm 2 m/S 642 mmHg 33%
    14:00 +24°C° 0.4 mm 2 m/S 642 mmHg 31%
    15:00 +21°C° 0.5 mm 2 m/S 641 mmHg 36%
    16:00 +20°C° 0.5 mm 2 m/S 641 mmHg 40%
    17:00 +18°C° 0.5 mm 2 m/S 640 mmHg 45%
    18:00 +19°C° 0.4 mm 1 m/S 641 mmHg 48%
    19:00 +18°C° 0.4 mm 1 m/S 641 mmHg 51%
    20:00 +16°C° 0.4 mm 1 m/S 641 mmHg 54%
    21:00 +16°C° 0.2 mm 1 m/S 641 mmHg 56%
    22:00 +15°C° 0.2 mm 1 m/S 641 mmHg 57%
    23:00 +15°C° 0.2 mm 1 m/S 641 mmHg 59%

    übermorgen, 18 Oktober, Donnerstag

    Zeit Temperatur Niederschläge Wind Luftdruck Luftfeuchtigkeit
    00:00 +14°C° 0 mm 1 m/S 640 mmHg 61%
    01:00 +14°C° 0 mm 1 m/S 640 mmHg 62%
    02:00 +13°C° 0 mm 1 m/S 640 mmHg 64%
    03:00 +13°C° 0 mm 1 m/S 640 mmHg 65%
    04:00 +13°C° 0 mm 1 m/S 640 mmHg 66%
    05:00 +13°C° 0 mm 1 m/S 640 mmHg 68%
    06:00 +14°C° 0 mm 1 m/S 640 mmHg 62%
    07:00 +15°C° 0 mm 1 m/S 641 mmHg 56%
    08:00 +18°C° 0 mm 1 m/S 642 mmHg 51%
    09:00 +18°C° 0 mm 2 m/S 642 mmHg 46%
    10:00 +20°C° 0 mm 2 m/S 642 mmHg 41%
    11:00 +21°C° 0 mm 3 m/S 643 mmHg 36%
    12:00 +21°C° 0.2 mm 3 m/S 642 mmHg 35%
    13:00 +22°C° 0.2 mm 3 m/S 642 mmHg 33%
    14:00 +22°C° 0.2 mm 3 m/S 642 mmHg 32%
    15:00 +21°C° 0.2 mm 3 m/S 642 mmHg 36%
    16:00 +20°C° 0.2 mm 2 m/S 641 mmHg 39%
    17:00 +18°C° 0.2 mm 2 m/S 641 mmHg 43%
    18:00 +18°C° 0.1 mm 2 m/S 641 mmHg 46%
    19:00 +18°C° 0.1 mm 1 m/S 641 mmHg 49%
    20:00 +16°C° 0.1 mm 1 m/S 641 mmHg 52%
    21:00 +15°C° 0 mm 1 m/S 641 mmHg 54%
    22:00 +15°C° 0 mm 1 m/S 641 mmHg 56%
    23:00 +14°C° 0 mm 1 m/S 640 mmHg 58%

    19 Oktober, Freitag

    Zeit Temperatur Niederschläge Wind Luftdruck Luftfeuchtigkeit
    00:00 +14°C° 0 mm 1 m/S 640 mmHg 59%
    01:00 +13°C° 0 mm 1 m/S 640 mmHg 60%
    02:00 +13°C° 0 mm 1 m/S 640 mmHg 62%
    03:00 +13°C° 0 mm 1 m/S 640 mmHg 63%
    04:00 +12°C° 0 mm 1 m/S 640 mmHg 65%
    05:00 +12°C° 0 mm 1 m/S 640 mmHg 66%
    06:00 +14°C° 0 mm 1 m/S 641 mmHg 59%
    07:00 +15°C° 0 mm 1 m/S 642 mmHg 53%
    08:00 +18°C° 0 mm 1 m/S 642 mmHg 46%
    09:00 +19°C° 0 mm 1 m/S 643 mmHg 42%
    10:00 +21°C° 0 mm 1 m/S 643 mmHg 38%
    11:00 +22°C° 0 mm 1 m/S 643 mmHg 34%
    12:00 +21°C° 0.1 mm 2 m/S 643 mmHg 32%
    13:00 +23°C° 0.1 mm 2 m/S 642 mmHg 31%
    14:00 +23°C° 0.1 mm 2 m/S 642 mmHg 29%
    15:00 +21°C° 0.2 mm 2 m/S 642 mmHg 33%
    16:00 +20°C° 0.2 mm 2 m/S 641 mmHg 36%
    17:00 +18°C° 0.2 mm 2 m/S 641 mmHg 40%
    18:00 +18°C° 0.2 mm 1 m/S 641 mmHg 43%
    19:00 +16°C° 0.2 mm 1 m/S 641 mmHg 46%
    20:00 +16°C° 0.2 mm 1 m/S 641 mmHg 50%
    21:00 +15°C° 0.1 mm 1 m/S 641 mmHg 51%
    22:00 +14°C° 0.1 mm 1 m/S 641 mmHg 53%
    23:00 +14°C° 0.1 mm 1 m/S 641 mmHg 55%

    20 Oktober, Samstag

    Zeit Temperatur Niederschläge Wind Luftdruck Luftfeuchtigkeit
    00:00 +13°C° 0 mm 1 m/S 640 mmHg 57%
    01:00 +13°C° 0 mm 1 m/S 640 mmHg 59%
    02:00 +12°C° 0 mm 1 m/S 640 mmHg 60%
    03:00 +12°C° 0 mm 1 m/S 640 mmHg 62%
    04:00 +12°C° 0 mm 1 m/S 640 mmHg 63%
    05:00 +10°C° 0 mm 0 m/S 640 mmHg 65%
    06:00 +12°C° 0 mm 0 m/S 640 mmHg 58%
    07:00 +14°C° 0 mm 0 m/S 641 mmHg 51%
    08:00 +15°C° 0 mm 0 m/S 642 mmHg 45%
    09:00 +19°C° 0 mm 1 m/S 642 mmHg 41%
    10:00 +20°C° 0 mm 1 m/S 642 mmHg 38%
    11:00 +21°C° 0 mm 1 m/S 642 mmHg 35%
    12:00 +21°C° 0 mm 1 m/S 642 mmHg 33%
    13:00 +22°C° 0 mm 1 m/S 642 mmHg 32%
    14:00 +22°C° 0 mm 1 m/S 641 mmHg 30%
    15:00 +21°C° 0 mm 1 m/S 641 mmHg 33%
    16:00 +20°C° 0 mm 1 m/S 641 mmHg 36%
    17:00 +19°C° 0 mm 1 m/S 641 mmHg 39%
    18:00 +18°C° 0.1 mm 1 m/S 641 mmHg 42%
    19:00 +18°C° 0.1 mm 1 m/S 641 mmHg 45%
    20:00 +16°C° 0.1 mm 1 m/S 641 mmHg 48%
    21:00 +15°C° 0.2 mm 1 m/S 640 mmHg 50%
    22:00 +15°C° 0.2 mm 1 m/S 640 mmHg 52%
    23:00 +14°C° 0.2 mm 1 m/S 640 mmHg 54%

    21 Oktober, Sonntag

    Zeit Temperatur Niederschläge Wind Luftdruck Luftfeuchtigkeit
    00:00 +14°C° 0.2 mm 1 m/S 640 mmHg 55%
    01:00 +14°C° 0.2 mm 1 m/S 640 mmHg 56%
    02:00 +13°C° 0.2 mm 1 m/S 639 mmHg 57%
    03:00 +13°C° 0.2 mm 1 m/S 639 mmHg 58%
    04:00 +13°C° 0.2 mm 1 m/S 639 mmHg 60%
    05:00 +12°C° 0.2 mm 1 m/S 639 mmHg 61%
    06:00 +13°C° 0.2 mm 1 m/S 640 mmHg 56%
    07:00 +15°C° 0.2 mm 1 m/S 640 mmHg 52%
    08:00 +16°C° 0.2 mm 1 m/S 641 mmHg 47%
    09:00 +18°C° 0.1 mm 1 m/S 641 mmHg 44%
    10:00 +19°C° 0.1 mm 1 m/S 641 mmHg 41%
    11:00 +20°C° 0.1 mm 1 m/S 642 mmHg 38%
    12:00 +19°C° 0 mm 2 m/S 641 mmHg 37%
    13:00 +20°C° 0 mm 2 m/S 641 mmHg 36%
    14:00 +20°C° 0 mm 2 m/S 641 mmHg 34%
    15:00 +19°C° 0 mm 2 m/S 641 mmHg 37%
    16:00 +18°C° 0 mm 2 m/S 641 mmHg 39%
    17:00 +17°C° 0 mm 2 m/S 640 mmHg 42%
    18:00 +16°C° 0 mm 2 m/S 640 mmHg 46%
    19:00 +15°C° 0 mm 1 m/S 640 mmHg 51%
    20:00 +14°C° 0 mm 1 m/S 640 mmHg 56%
    21:00 +14°C° 0.1 mm 1 m/S 640 mmHg 58%
    22:00 +13°C° 0.1 mm 1 m/S 640 mmHg 61%
    23:00 +13°C° 0.1 mm 1 m/S 640 mmHg 63%
    Mehr zeigen